Regional Weather Roundup
Issued by NWS

Home | Current Version | Previous Version | Graphics & Text | Print | Product List | Glossary On
Versions: 1 2 3 4 5 6 7 8 9 10 11 12 13 14 15 16 17 18 19 20 21 22 23 24 25 26 27 28 29 30 31 32 33 34 35 36 37 38 39 40 41 42 43 44 45 46 47 48 49 50
000
ASUS45 KTFX 202310
RWRMT
MONTANA REGIONAL WEATHER ROUNDUP
NATIONAL WEATHER SERVICE GREAT FALLS MT
400 PM MST TUE FEB 20 2018

NOTE: "FAIR" INDICATES FEW OR NO CLOUDS BELOW 12000 FEET WITH NO
SIGNIFICANT WEATHER AND/OR OBSTRUCTIONS TO VISIBILITY.

MTZ001>007-043-210000-
WEST OF THE DIVIDE

CITY           SKY/WX    TMP DP  RH WIND       PRES   REMARKS
KALISPELL      CLOUDY    12   4  70 S6        30.14R WCI   3
MISSOULA       CLOUDY    14  -1  51 CALM      30.12S
BUTTE          FAIR       4  -6  63 S3        29.92S
MULLAN PASS    LGT SNOW   3  -1  83 CALM      29.87R FOG
ANACONDA         N/A      9  -6  52 CALM      29.98S
DEER LODGE       N/A      7  -6  56 SW3       30.02S
HAMILTON         N/A     18  -4  38 MISG      30.07S
RONAN            N/A      3  -2  78 SW3       30.17R
$$

MTZ008-052>055-210000-
SOUTHWEST MONTANA

CITY           SKY/WX    TMP DP  RH WIND       PRES   REMARKS
BOZEMAN        FAIR       6  -8  52 CALM      30.04S
DILLON         FAIR       0  -5  79 E5        29.95R
ENNIS          PTSUNNY    9  -6  52 CALM      29.99R
W YELLOWSTONE  FAIR       5  -2  72 SW13G18   29.87R HAZE    WCI -12
THREE FORKS      N/A      8  -8  48 CALM      30.04R
TWIN BRIDGES     N/A     10  -9  42 CALM      29.97S
$$

MTZ009-010-012-014-046-048-049-054-210000-
EAST SLOPES AND CENTRAL MONTANA

CITY           SKY/WX    TMP DP  RH WIND       PRES   REMARKS
CUT BANK       CLOUDY     7   0  73 NW8       30.03R WCI  -6
GREAT FALLS    FAIR       6  -4  63 SW9       30.05R WCI  -8
HELENA         FAIR       8  -6  52 N3        30.07S
AUGUSTA        FAIR       2  -6  72 CALM      29.99R
CHOTEAU          N/A      7  -6  56 SW6       30.05R WCI  -3
RAYNESFORD     FAIR      11  -4  50 W16       30.02R WCI  -6
WHITE SULPHUR    N/A      0  -9  65 CALM      29.96R
$$

MTZ011-013-016-021-045-047-050-051-210000-
NORTH CENTRAL MONTANA

CITY           SKY/WX    TMP DP  RH WIND       PRES   REMARKS
HAVRE          FAIR      -1  -8  72 SW18      30.13R WCI -22
LEWISTOWN      FAIR       1  -8  66 SW8       30.01R WCI -13
N BAR RANCH    FAIR       9 -11  40 NW13      30.00R WCI  -7
CHINOOK          N/A      5  -6  61 W12       30.14R WCI -11
GEYSER         FAIR       9  -7  49 W16       30.01R WCI  -9
STANFORD       FAIR       6  -4  63 NW14      29.98R WCI -11
$$

MTZ017>020-022>027-061-062-210000-
NORTHEAST MONTANA

CITY           SKY/WX    TMP DP  RH WIND       PRES   REMARKS
GLASGOW        FAIR      -2 -10  69 W10       30.13R WCI -19
GLENDIVE       FAIR       1  -7  68 SW9       30.15R WCI -14
JORDAN           N/A      0  -9  65 W8        30.12R WCI -14
MALTA          PTSUNNY   -8 -15  71 SW10      30.14R WCI -26
SIDNEY         FAIR       5  -5  63 SW8       30.17R WCI  -8
WOLF POINT     FAIR       0  -8  69 W13       30.17R WCI -18
PLENTYWOOD       N/A      5  -8  56 W12       30.06S WCI -11
POPLAR           N/A      0  -9  65 W10       30.17R WCI -17
$$

MTZ028>42-056>058-210000-
SOUTHCENTRAL AND SOUTHEAST MONTANA

CITY           SKY/WX    TMP DP  RH WIND       PRES   REMARKS
BAKER          FAIR       0  -6  76 W15       30.11R WCI -19
BILLINGS       FAIR       8  -3  61 SW15      30.08R WCI  -9
LIVINGSTON     FAIR      11  -2  56 NW9       29.98R WCI  -2
MILES CITY     FAIR       0  -7  72 S6        30.16R WCI -12
BIG TIMBER     SUNNY     10  -2  56 W13       30.00S WCI  -5
FORSYTH          N/A      7  -6  56 CALM      30.16R
LAUREL           N/A      7  -4  61 SW15G24   30.10S WCI -11
$$

REGIONAL REPORTS...DAKOTAS

CITY           SKY/WX    TMP DP  RH WIND       PRES   REMARKS
WILLISTON      FAIR       4  -4  69 W12G22    30.14R WCI -12
MINOT          FAIR       9  -2  61 SW21G26   30.08R WCI -11
DICKINSON      FAIR       4  -5  66 W16       30.09R WCI -15
BEACH          FAIR       0  -8  71 W15       30.13S WCI -20
CROSBY         FAIR       7  -2  66 SW18      30.06S WCI -12
TIOGA          FAIR       1  -2  85 W20       30.07R WCI -20
WATFORD CITY   FAIR       5  -4  66 W16G23    30.13R WCI -14
BISMARCK       FAIR      11  -1  58 W18       30.18R WCI  -7
GRAND FORKS    FAIR      11   1  64 W13       30.15R WCI  -4
FARGO          FAIR      11   2  67 NW13      30.19R WCI  -4
BUFFALO SD       N/A      2  -6  69 SW9       30.04R WCI -13
RAPID CITY     FAIR       0  -6  76 S9        30.15R WCI -15
$$

REGIONAL REPORTS...WYOMING/IDAHO/WASHINGTON

CITY           SKY/WX    TMP DP  RH WIND       PRES   REMARKS
GILLETTE       FAIR       3  -8  60 SW8       30.05R WCI -10
SHERIDAN       FAIR      10  -7  46 CALM      30.06R
BUFFALO WY     FAIR       5  -7  57 S10       29.99S WCI -10
CODY           FAIR       2  -7  66 NE6       29.98R WCI  -9
YELLOWSTONE LA   N/A      4  -6  63 W9G16     29.82R WCI -10
IDAHO FALLS    CLOUDY    15   7  70 SW15G21   30.07R WCI   0
SALMON         FAIR      26   3  37 CALM      30.02R
BOISE          FAIR      27   1  32 N5        30.15S
SPOKANE        CLOUDY    20   9  62 SE6       30.15S WCI  12
$$

REGIONAL REPORTS...ALBERTA

CITY           SKY/WX    TMP DP  RH WIND       PRES   REMARKS
$$

REGIONAL REPORTS...SASKATCHEWAN

CITY           SKY/WX    TMP DP  RH WIND       PRES   REMARKS
$$



USA.gov is the U.S. government's official web portal to all federal, state and local government web resources and services.